Bay Point Middle School FL US WEATHERSTEM current weather conditions

sailwx.info

Wind from 325 at 3 knots gusting 10

Air temperature 18.8° C
Dewpoint 17.2° C

Last reported at 2019-Nov-15 23:00 UTC.
Time now 2019-Nov-15 23:49 UTC

Location: N 27°43' W 082°40'.
View on Google Maps.

See reports from other nearby stations

  
Tides and Currents Weather Stations Pressure Air Temp Water Temp Dewpoint Dewpoint Depression Visibility Wind Speed Wind Dir Waves Ship Positions
date/time (UTC)wind fromknots sea level pressurealtimeterstation pressurevisibilityair tempwater tempwave heightnotes
2019-Nov-15 23:00 325 3 gusting 10 18.8
2019-Nov-15 22:50 326 8 gusting 11 18.9
2019-Nov-15 22:40 329 5 gusting 11 19.0
2019-Nov-15 22:30 337 5 gusting 12 19.2
2019-Nov-15 22:20 326 4 gusting 13 19.3
2019-Nov-15 22:10 323 10 gusting 14 19.4
2019-Nov-15 22:00 313 9 gusting 13 19.4
2019-Nov-15 21:50 329 8 gusting 12 19.6
2019-Nov-15 21:40 333 4 gusting 13 19.6
2019-Nov-15 21:30 331 10 gusting 11 19.7
2019-Nov-15 21:20 321 7 gusting 16 19.8
2019-Nov-15 21:10 323 6 gusting 13 20.1
2019-Nov-15 21:00 305 7 gusting 14 20.2
2019-Nov-15 20:50 324 7 gusting 13 20.3
2019-Nov-15 20:40 314 6 gusting 13 20.4
2019-Nov-15 20:30 334 6 gusting 11 20.2
2019-Nov-15 20:20 299 8 gusting 12 20.2
2019-Nov-15 20:10 313 6 gusting 14 20.3
2019-Nov-15 20:00 334 6 gusting 13 20.3
2019-Nov-15 19:50 317 10 gusting 12 20.3
2019-Nov-15 19:40 323 11 gusting 12 20.4
2019-Nov-15 19:30 317 9 gusting 15 20.4
2019-Nov-15 19:20 319 7 gusting 14 20.5
2019-Nov-15 19:10 313 7 gusting 13 20.6
2019-Nov-15 19:00 335 8 gusting 14 20.7
2019-Nov-15 18:50 318 12 gusting 13 20.8
2019-Nov-15 18:40 305 7 gusting 13 20.8
2019-Nov-15 18:30 311 13 gusting 15 20.8
2019-Nov-15 18:20 313 8 gusting 13 20.7
2019-Nov-15 18:10 298 8 gusting 10 20.7
2019-Nov-15 18:00 304 6 gusting 12 20.5
2019-Nov-15 17:50 317 6 gusting 11 20.4
2019-Nov-15 17:40 286 6 gusting 10 20.3
2019-Nov-15 17:30 279 5 gusting 12 20.4
2019-Nov-15 17:20 302 3 gusting 13 20.4
2019-Nov-15 17:10 315 8 gusting 13 20.6
2019-Nov-15 17:00 294 3 gusting 12 20.7
2019-Nov-15 16:40 308 6 gusting 11 20.8
2019-Nov-15 16:30 306 6 gusting 13 20.8
2019-Nov-15 16:20 315 6 gusting 10 21.0
2019-Nov-15 16:10 314 5 gusting 10 20.9
2019-Nov-15 16:00 309 6 gusting 13 21.0
2019-Nov-15 15:50 306 7 gusting 13 21.1
2019-Nov-15 15:40 317 7 gusting 10 21.2
2019-Nov-15 15:30 343 5 gusting 8 21.2
2019-Nov-15 15:20 302 6 gusting 9 21.1
2019-Nov-15 15:10 360 6 gusting 9 20.9
2019-Nov-15 15:00 335 3 gusting 9 20.8
2019-Nov-15 14:50 350 4 gusting 9 20.7
2019-Nov-15 14:40 322 7 gusting 10 20.7
2019-Nov-15 14:30 332 4 gusting 9 20.4
2019-Nov-15 14:20 336 5 gusting 8 20.3
2019-Nov-15 14:10 360 4 gusting 7 20.2
2019-Nov-15 14:00 029 2 gusting 9 20.0
2019-Nov-15 13:50 341 5 gusting 8 19.9
2019-Nov-15 13:40 355 4 gusting 9 19.8
2019-Nov-15 13:30 331 5 gusting 9 19.7
2019-Nov-15 13:20 355 3 gusting 9 19.6
2019-Nov-15 13:10 360 3 gusting 9 19.5
2019-Nov-15 13:00 022 6 gusting 10 19.4
2019-Nov-15 12:50 010 8 gusting 8 19.4
2019-Nov-15 12:40 019 7 gusting 11 19.4
2019-Nov-15 12:30 011 4 gusting 8 19.3
2019-Nov-15 12:20 355 3 gusting 11 19.4
2019-Nov-15 12:10 005 8 gusting 11 19.6
2019-Nov-15 12:00 315 3 gusting 13 19.8
2019-Nov-15 11:50 342 8 gusting 13 20.4
2019-Nov-15 11:40 310 8 gusting 13 21.2
2019-Nov-15 11:30 313 11 gusting 13 22.1
2019-Nov-15 11:20 196 0 gusting 1 22.1
2019-Nov-15 11:10 196 0 gusting 1 22.1
2019-Nov-15 11:00 196 1 gusting 4 22.1
2019-Nov-15 10:50 124 0 gusting 3 22.0
2019-Nov-15 10:40 124 0 gusting 5 22.0
2019-Nov-15 10:30 130 1 gusting 3 22.0
2019-Nov-15 10:20 131 22.0
2019-Nov-15 10:10 131 2 gusting 3 22.0
2019-Nov-15 10:00 131 1 gusting 3 22.1
2019-Nov-15 09:50 131 2 gusting 2 22.0
2019-Nov-15 09:40 131 0 gusting 2 22.0
2019-Nov-15 09:30 22.0
2019-Nov-15 09:20 131 0 gusting 2 22.0
2019-Nov-15 09:10 131 1 gusting 3 21.9
2019-Nov-15 09:00 131 2 gusting 6 22.0
2019-Nov-15 08:50 132 0 gusting 6 22.0
2019-Nov-15 08:40 127 2 gusting 6 22.0
2019-Nov-15 08:30 159 4 gusting 6 21.9
2019-Nov-15 08:20 146 2 gusting 7 21.9
2019-Nov-15 08:10 148 4 gusting 6 22.0
2019-Nov-15 08:00 141 1 gusting 6 22.0
2019-Nov-15 07:50 134 2 gusting 6 22.0
2019-Nov-15 07:40 132 3 gusting 4 22.1
2019-Nov-15 07:30 107 1 gusting 5 22.1
2019-Nov-15 07:20 128 0 gusting 4 22.1
2019-Nov-15 07:10 113 2 gusting 5 22.1
2019-Nov-15 07:00 139 2 gusting 4 22.1
2019-Nov-15 06:50 139 2 gusting 7 22.1
2019-Nov-15 06:40 155 2 gusting 6 22.1
2019-Nov-15 06:30 142 2 gusting 6 22.1
2019-Nov-15 06:20 143 3 gusting 6 22.2
2019-Nov-15 06:10 148 2 gusting 6 22.2
2019-Nov-15 06:00 151 3 gusting 7 22.2
2019-Nov-15 05:50 150 1 gusting 7 22.3
2019-Nov-15 05:40 135 1 gusting 8 22.3
2019-Nov-15 05:30 122 3 gusting 9 22.3
2019-Nov-15 05:20 148 3 gusting 7 22.3
2019-Nov-15 05:10 115 3 gusting 11 22.2
2019-Nov-15 05:00 138 0 gusting 8 22.2
2019-Nov-15 04:50 123 1 gusting 6 22.2
2019-Nov-15 04:40 157 4 gusting 6 22.2
2019-Nov-15 04:30 132 3 gusting 6 22.2
2019-Nov-15 04:20 132 3 gusting 8 22.2
2019-Nov-15 04:10 136 6 gusting 7 22.2
2019-Nov-15 04:00 145 2 gusting 7 22.1
2019-Nov-15 03:50 113 1 gusting 5 22.1
2019-Nov-15 03:40 113 3 gusting 6 22.1
2019-Nov-15 03:30 111 5 gusting 6 22.1
2019-Nov-15 03:20 115 1 gusting 5 22.1
2019-Nov-15 03:10 115 0 gusting 5 22.1
2019-Nov-15 03:00 117 0 gusting 7 22.1
2019-Nov-15 02:50 137 4 gusting 7 22.1
2019-Nov-15 02:40 098 2 gusting 7 22.1
2019-Nov-15 02:30 087 3 gusting 6 22.1
2019-Nov-15 02:20 092 3 gusting 7 22.1
2019-Nov-15 02:10 103 5 gusting 7 22.1
2019-Nov-15 02:00 109 5 gusting 6 22.1
2019-Nov-15 01:50 077 2 gusting 10 22.2
2019-Nov-15 01:40 101 6 gusting 8 22.2
2019-Nov-15 01:30 114 2 gusting 6 22.2
2019-Nov-15 01:20 096 3 gusting 5 22.3
2019-Nov-15 01:10 073 3 gusting 6 22.4
2019-Nov-15 01:00 067 0 gusting 7 22.5
2019-Nov-15 00:50 101 2 gusting 7 22.6
2019-Nov-15 00:40 078 3 gusting 7 22.7
2019-Nov-15 00:30 077 6 gusting 7 22.9
2019-Nov-15 00:20 065 2 gusting 8 23.1
2019-Nov-15 00:10 046 4 gusting 10 23.4
2019-Nov-15 00:00 063 7 gusting 11 23.4
2019-Nov-14 23:50 064 5 gusting 11 23.4
2019-Nov-14 23:40 061 5 gusting 7 23.4
2019-Nov-14 23:30 067 4 gusting 9 23.3
2019-Nov-14 23:20 071 3 gusting 8 23.4
2019-Nov-14 23:10 059 1 gusting 6 23.4
2019-Nov-14 23:00 045 3 gusting 5 23.4
2019-Nov-14 22:50 055 4 gusting 6 23.5
2019-Nov-14 22:40 096 0 gusting 7 23.6
2019-Nov-14 22:30 090 2 gusting 8 23.6
2019-Nov-14 22:20 094 5 gusting 10 23.4
2019-Nov-14 22:10 074 1 gusting 8 23.3
2019-Nov-14 22:00 096 6 gusting 8 23.3
2019-Nov-14 21:50 119 4 gusting 8 23.2
2019-Nov-14 21:40 065 3 gusting 5 23.2
2019-Nov-14 21:30 23.3
2019-Nov-14 21:20 23.5
2019-Nov-14 21:10 070 9 gusting 9 23.9
2019-Nov-14 21:00 23.6
2019-Nov-14 20:50 23.6
2019-Nov-14 20:40 23.6
2019-Nov-14 20:30 23.7
2019-Nov-14 20:20 23.8
2019-Nov-14 20:10 23.8
2019-Nov-14 20:00 23.8
2019-Nov-14 19:50 23.9
2019-Nov-14 19:40 23.8
2019-Nov-14 19:30 23.8
2019-Nov-14 19:20 23.7
2019-Nov-14 19:10 23.8
2019-Nov-14 19:00 23.8
2019-Nov-14 18:50 23.8
2019-Nov-14 18:40 23.8
2019-Nov-14 18:30 23.8
2019-Nov-14 18:20 23.7
2019-Nov-14 18:10 23.6
2019-Nov-14 18:00 23.3
2019-Nov-14 17:50 23.2
2019-Nov-14 17:40 23.1
2019-Nov-14 17:30 23.1
2019-Nov-14 17:20 23.0
2019-Nov-14 17:10 22.9
2019-Nov-14 17:00 22.7
2019-Nov-14 16:50 22.4
2019-Nov-14 16:40 22.1
2019-Nov-14 16:30 21.7
2019-Nov-14 16:20 21.6
2019-Nov-14 16:10 051 8 gusting 9 21.5
2019-Nov-14 16:00 030 5 gusting 10 21.3
2019-Nov-14 15:50 065 3 gusting 13 21.1
2019-Nov-14 15:40 053 6 gusting 11 20.9
2019-Nov-14 15:30 077 2 gusting 12 20.8
2019-Nov-14 15:20 055 4 gusting 9 20.5
2019-Nov-14 15:10 058 5 gusting 11 20.2
2019-Nov-14 15:00 049 12 gusting 13 20.1
2019-Nov-14 14:50 082 6 gusting 12 20.0
2019-Nov-14 14:40 064 5 gusting 14 19.9
2019-Nov-14 14:30 055 8 gusting 11 19.8
2019-Nov-14 14:20 024 7 gusting 13 19.6
2019-Nov-14 14:00 036 5 gusting 10 19.4
2019-Nov-14 13:50 036 6 gusting 12 19.4
2019-Nov-14 13:40 021 6 gusting 12 19.6
2019-Nov-14 13:30 040 6 gusting 9 19.7
2019-Nov-14 13:20 032 3 gusting 12 19.7
2019-Nov-14 13:10 051 6 gusting 9 19.7
2019-Nov-14 13:00 061 6 gusting 12 19.6
2019-Nov-14 12:50 046 5 gusting 12 19.5
2019-Nov-14 12:40 052 5 gusting 11 19.4
2019-Nov-14 12:30 052 9 gusting 13 19.4
2019-Nov-14 12:20 047 6 gusting 13 19.5
2019-Nov-14 12:10 035 8 gusting 13 19.5
2019-Nov-14 12:00 030 4 gusting 7 19.5
2019-Nov-14 11:50 030 3 gusting 10 19.4
2019-Nov-14 11:40 061 5 gusting 14 19.4
2019-Nov-14 11:30 061 8 gusting 13 19.3
2019-Nov-14 11:20 048 6 gusting 10 19.1
2019-Nov-14 11:10 061 8 gusting 11 18.9
2019-Nov-14 11:00 023 9 gusting 13 18.8
2019-Nov-14 10:50 048 1 gusting 13 18.8
2019-Nov-14 10:40 019 7 gusting 12 18.8
2019-Nov-14 10:30 015 6 gusting 12 18.9
2019-Nov-14 10:20 065 4 gusting 13 18.9
2019-Nov-14 10:10 069 10 gusting 13 18.8
2019-Nov-14 10:00 028 6 gusting 13 18.9
2019-Nov-14 09:50 055 10 gusting 12 19.0
2019-Nov-14 09:40 071 7 gusting 12 19.1
2019-Nov-14 09:30 069 8 gusting 13 19.1
2019-Nov-14 09:20 061 4 gusting 12 19.2
2019-Nov-14 09:10 026 6 gusting 13 19.2
2019-Nov-14 09:00 064 6 gusting 14 19.1
2019-Nov-14 08:50 082 7 gusting 13 19.1
2019-Nov-14 08:40 038 8 gusting 15 19.1
2019-Nov-14 08:30 063 9 gusting 15 19.1
2019-Nov-14 08:20 033 6 gusting 12 19.1
2019-Nov-14 08:10 055 3 gusting 13 19.1
2019-Nov-14 08:00 053 6 gusting 13 18.9
2019-Nov-14 07:50 057 6 gusting 16 18.7
2019-Nov-14 07:40 042 6 gusting 12 18.7
2019-Nov-14 07:30 034 6 gusting 13 18.6
2019-Nov-14 07:20 066 8 gusting 12 18.5
2019-Nov-14 07:00 019 10 gusting 13 18.6
2019-Nov-14 06:50 015 6 gusting 13 18.6
2019-Nov-14 06:40 054 6 gusting 13 18.4
2019-Nov-14 06:30 051 6 gusting 13 18.4
2019-Nov-14 06:20 061 6 gusting 13 18.4
2019-Nov-14 06:10 067 7 gusting 15 18.4
2019-Nov-14 06:00 042 13 gusting 14 18.3
2019-Nov-14 05:50 071 7 gusting 17 18.3
2019-Nov-14 05:40 032 11 gusting 13 18.3
2019-Nov-14 05:30 071 8 gusting 13 18.3
2019-Nov-14 05:20 035 11 gusting 13 18.3
2019-Nov-14 05:10 053 5 gusting 15 18.3
2019-Nov-14 05:00 018 7 gusting 15 18.3
2019-Nov-14 04:50 071 9 gusting 14 18.3
2019-Nov-14 04:40 037 6 gusting 13 18.3
2019-Nov-14 04:30 080 6 gusting 15 18.3
2019-Nov-14 04:20 040 5 gusting 15 18.3
2019-Nov-14 04:10 063 5 gusting 17 18.3
2019-Nov-14 04:00 048 9 gusting 15 18.3
2019-Nov-14 03:50 042 5 gusting 14 18.3
2019-Nov-14 03:40 037 6 gusting 16 18.4
2019-Nov-14 03:30 027 6 gusting 14 18.4
2019-Nov-14 03:20 034 4 gusting 14 18.4
2019-Nov-14 03:10 074 7 gusting 14 18.4
2019-Nov-14 03:00 018 8 gusting 17 18.4
2019-Nov-14 02:50 055 6 gusting 14 18.4
2019-Nov-14 02:40 046 5 gusting 14 18.3
2019-Nov-14 02:30 065 6 gusting 14 18.4
2019-Nov-14 02:20 055 7 gusting 15 18.4
2019-Nov-14 02:10 18.4
2019-Nov-14 02:00 18.4
2019-Nov-14 01:50 18.4
2019-Nov-14 01:40 18.4
2019-Nov-14 01:30 18.4
2019-Nov-14 01:20 18.4
2019-Nov-14 01:10 18.5
2019-Nov-14 01:00 18.6
2019-Nov-14 00:50 18.7
2019-Nov-14 00:40 18.7
2019-Nov-14 00:30 18.7
2019-Nov-14 00:20 18.6
2019-Nov-14 00:10 18.6
2019-Nov-14 00:00 18.7
2019-Nov-13 23:50 18.8
2019-Nov-13 23:40 18.9
2019-Nov-13 23:30 19.1
2019-Nov-13 23:20 19.1
2019-Nov-13 23:10 19.1
2019-Nov-13 23:00 19.2